Starlink 11439

operational
NORAD ID: 62419 Int'l Des: 2024-249 Owner: SPXS Country: US Constellation: starlink
LEOCIRCULAR

About Starlink 11439

Description loading...

Live Position

Loading 3D Globe...

Upcoming Passes

Altitude History

Altitude vs Time

uPlot chart will show altitude changes over time

Two-Line Element Set

1 62419U 24249L 25306.46406359 .00336683 00000-0 25170-2 0 9992
2 62419 43.0011 214.3212 0001173 280.3763 79.6973 15.70891839 49475
Epoch: Nov 2, 2025 • Age: 12 hours

Current Status

Altitude 354.5 km
Velocity 7.70 km/s
Sub-Earth Point 13.44°N, 167.91°W
Launch Date Dec 23, 2024
Age 0.8 years
Type internet

Technical Details

Classification Payload
Mass 960.00 kg
Dry Mass 910.00 kg
Total Mass 960.00 kg
Length 0.30 m
Diameter 4.10 m
Span 29.00 m
Shape Box + pan
Manufacturer SPXS
Bus Type Starlink V2MD
Phase Status In Orbit
Owner/State SPXS/US

Large Constellations

Loading constellations...